Terug naar catalogus

STARLINK-4067

ActiefCommunicatieVLEO
NORAD 52668·PAYLOAD·🇺🇸 United States

Gelanceerd May 18, 2022 vanaf Cape Canaveral Space Force Station

Loading…

Volgende Passages (komende 24 uur)

TLE

VersSource: CelesTrak SupGP

Epoch: Sep 15, 2026, 01:19 UTC

1 52668C 22053N   26258.05534722 -.00011810  00000+0 -37984-3 0  2584
2 52668  53.1596  11.1400 0001065  89.1894 140.6948 15.31702511    15

Volg STARLINK-4067 in realtime met AllMySat

Download on the App Store